Regional Weather Roundup
Issued by NWS

Home | Current Version | Previous Version | Text Only | Print | Product List | Glossary Off
Versions: 1 2 3 4 5 6 7 8 9 10 11 12 13 14 15 16 17 18 19 20 21 22 23 24 25 26 27 28 29 30 31 32 33 34 35 36 37 38 39 40 41 42 43 44 45 46 47 48 49 50

000
ASUS43 KMKX 292211
RWRWI

WISCONSIN REGIONAL WEATHER ROUNDUP
NATIONAL WEATHER SERVICE MILWAUKEE/SULLIVAN WI
500 PM CDT THU SEP 29 2016

NOTE: "FAIR" INDICATES FEW OR NO CLOUDS BELOW 12,000 FEET WITH NO
SIGNIFICANT WEATHER AND/OR OBSTRUCTIONS TO VISIBILITY.

WIZ001-002-006>008-014>016-023>028-292300-
NORTHWEST WISCONSIN

CITY           SKY/WX    TMP DP  RH WIND       PRES   REMARKS
SUPERIOR ARPT  SUNNY     57  51  79 E8G18     30.48S
ASHLAND        MOSUNNY   57  51  80 NE13      30.48F
HAYWARD        SUNNY     63  52  67 NE14      30.44S
SIREN          SUNNY     65  49  56 E6        30.43S
CUMBERLAND     SUNNY     64  48  55 NE7       30.42S
RICE LAKE      MOSUNNY   69  50  50 N7        30.42S
CHETEK         NOT AVBL
LADYSMITH      MOSUNNY   70  51  51 NE7       30.42S
EAU CLAIRE     SUNNY     70  50  49 N8        30.37F
MENOMONIE      SUNNY     73  50  44 NE6       30.39S HAZE
NEW RICHMOND   SUNNY     68  48  48 NE6       30.41S
OSCEOLA        SUNNY     67  50  54 CALM      30.44S
$$

WIZ003>005-009-010-017-018-292300-
NORTH CENTRAL WISCONSIN

CITY           SKY/WX    TMP DP  RH WIND       PRES   REMARKS
MANITOWISH WTR NOT AVBL
ARBOR VITAE    SUNNY     64  54  70 NE8       30.43S
WOODRUFF       SUNNY     64  54  70 NE8       30.43S
RHINELANDER    SUNNY     67  54  63 N7        30.41S
EAGLE RIVER    SUNNY     64  52  64 NE10      30.42S
LAND O LAKES   SUNNY     62  53  72 N9        30.46S
PHILLIPS       SUNNY     66  52  61 NE7       30.41S
TOMAHAWK       SUNNY     67  51  56 N7        30.40F
MEDFORD        MOSUNNY   67  51  56 N9        30.38F
MERRILL        MOSUNNY   68  52  56 NE6       30.39S
$$

WIZ029-030-035-036-043>047-292300-
CENTRAL WISCONSIN

CITY           SKY/WX    TMP DP  RH WIND       PRES   REMARKS
WAUSAU         SUNNY     70  48  45 NE10      30.36S
MOSINEE        MOSUNNY   68  48  49 NE12      30.37F
MARSHFIELD     SUNNY     72  47  40 NE6       30.36S
STEVENS POINT  SUNNY     69  48  48 NE10      30.36R
WAUPACA        SUNNY     73  49  42 NE7       30.34R
WAUTOMA        MOSUNNY   71  51  49 NE9G18    30.33
WISC RAPIDS    SUNNY     72  46  39 E10       30.36S
CAMP DOUGLAS   SUNNY     71  50  48 NE6       30.33S
$$

WIZ011>013-019>022-031-037>040-048>050-292300-
NORTHEAST WISCONSIN

CITY           SKY/WX    TMP DP  RH WIND       PRES   REMARKS
ANTIGO         MOSUNNY   67  50  54 NE8       30.39S
SHAWANO        MOSUNNY   72  51  47 E9        30.35R
OCONTO         NOT AVBL
STURGEON BAY   SUNNY     67  51  56 NE16G23   30.35S
GREEN BAY      SUNNY     68  52  56 NE20      30.33F
MANITOWOC      CLOUDY    65  57  75 MISG      30.32R
APPLETON       MOSUNNY   68  45  42 NE16G23   30.32S
CLINTONVILLE   SUNNY     70  46  43 E10       30.34S
OSHKOSH        SUNNY     68  53  58 N18       30.31S
$$

WIZ032>034-041-042-053>061-292300-
SOUTHWEST WISCONSIN

CITY           SKY/WX    TMP DP  RH WIND       PRES   REMARKS
LA CROSSE      SUNNY     74  52  46 N10       30.33F
SPARTA         SUNNY     71  51  49 N13       30.34S
VIROQUA        SUNNY     70  49  47 NE12      30.33S
BOSCOBEL       SUNNY     75  45  34 NE7G20    30.29S
PRAIRIE DU CHI SUNNY     73  44  35 NE10G17   30.29S
PLATTEVILLE    SUNNY     71  50  46 NE18G28   30.27S
$$

WIZ056-057-062-063-064-067-068-292300-
SOUTH CENTRAL WISCONSIN

CITY           SKY/WX    TMP DP  RH WIND       PRES   REMARKS
REEDSBURG      NOT AVBL
BARABOO/DELLS  SUNNY     70  43  37 NE16G25   30.30S
LONE ROCK      SUNNY     73  48  41 NE10G18   30.29S
MINERAL POINT  SUNNY     72  46  40 NE13G22   30.28S
MADISON        MOSUNNY   70  52  52 NE21G26   30.28R
MIDDLETON      MOSUNNY   72  51  47 NE17G26   30.28S
WATERTOWN      MOSUNNY   68  53  59 NE10G22   30.27R
MONROE         CLOUDY    68  52  56 N13G21    30.26R
JANESVILLE     NOT AVBL
$$

WIZ051-052-058>065-066-070>072-292300-
SOUTHEAST WISCONSIN

CITY           SKY/WX    TMP DP  RH WIND       PRES   REMARKS
MILWAUKEE      CLOUDY    63  58  83 N20G29    30.27R
WAUKESHA       PTSUNNY   64  54  68 NE14G21   30.27S
MILWAUKEE/TIMM PTSUNNY   64  52  63 NE12G24   30.27S
RACINE         PTSUNNY   61  57  87 N15       30.27R
BURLINGTON     CLOUDY    63  53  69 NE13G20   30.26R
KENOSHA        CLOUDY    63  57  81 N13G23    30.24S
FOND DU LAC    SUNNY     68  56  65 N16G28    30.31R
SHEBOYGAN      SUNNY     65  57  75 NE20G29   30.29S
WEST BEND      PTSUNNY   70  61  73 NE16G23   30.28S
JUNEAU         SUNNY     68  50  52 NE16      30.29S
$$

LSZ147-162-292300-
LAKE SUPERIOR

STATION/POSITION TIME  TEMP    WIND        PRES    WAVE
                       AIR SEA DIR/SP/G            HT/PER
                 (UTC) (F)     (DEG/KT/KT) (MB)    (FT/S)
W MID LAKE BUOY  2150   55 55   80/  8/ 10 1032.4F   1/ 5
DEVILS ISLAND    2200   54      60/  9/ 10 1032.8F
SAXON HARBOR     2100   57      30/  9/ 11 1031.8F
$$

LMZ867-665-643>646-292300-
LAKE MICHIGAN

STATION/POSITION TIME  TEMP    WIND        PRES    WAVE
                       AIR SEA DIR/SP/G            HT/PER
                 (UTC) (F)     (DEG/KT/KT) (MB)    (FT/S)
CHAMBERS ISLAND  2100   64      20/ 11/ 12 1027.4F
S GREEN BAY BUOY 2100   64 63   30/ 14/ 17 1026.7F
N MID LAKE BUOY  2150   65 66   60/ 16/ 19 1027.5R   3/ 4
NORTHPORT PIER   2100   69      30/ 10/ 15 1027.4
SISTER BAY       2108   74      10/ 11/ 19   N/A
KEWAUNEE LAKESHO 2100   63      20/  8/ 15 1026.5F
SHEBOYGAN LAKESH 2200   61      10/ 22/ 25 1025.3R
PORT WASHINGTON  2100   66      30/ 17/ 26 1025.7R
ATWATER BUOY     2100   57 52   10/ 16/ 19 1024.4R
MILWAUKEE LAKESH 2110   61     360/ 20/ 25   N/A
S MID LAKE BUOY  2150   65 69   70/ 21/ 25 1022.7R   7/ 7
KENOSHA   LAKESH 2200   61      20/ 18/ 23 1024.0R
$$

TC  - TEMPERATURE IN CELSIUS
VSB - VISIBILITY IN STATUTE MILES
WCI - WIND CHILL INDEX
HX  - HEAT INDEX




USA.gov is the U.S. government's official web portal to all federal, state and local government web resources and services.